Weather History for Bentonville, AR

Change the Weather History Date:

Sunday, May 26, 2013

  Actual Average Record
Temperature  
Mean Temperature 74 °F -  
Max Temperature 82 °F 77 °F 92 °F (1953)
Min Temperature 66 °F 55 °F 38 °F (1988)
Cooling Degree Days 9    
Growing Degree Days 24 (Base 50)    
Moisture  
Dew Point 62 °F    
Average Humidity 61    
Maximum Humidity 88    
Minimum Humidity 51    
Precipitation  
Precipitation 0.00 in - - ()
Sea Level Pressure  
Sea Level Pressure 30.05 in    
Wind  
Wind Speed 11 mph (South)    
Max Wind Speed 16 mph    
Max Gust Speed 22 mph    
Visibility 10 miles    
Events      
Averages and records for this station are not official NWS values.
T = Trace of Precipitation, MM = Missing Value Source: NWS Daily Summary

Daily Weather History Graph

Daily Weather History Graph

Search for Another Location

Airport:

Trip Planner

Search our weather history database for the weather conditions in past years. The results will help you decide how hot, cold, wet, or windy it might be!

Date:

Astronomy

May. 26, 2013 Rise Set
Actual Time 6:02 AM CDT 8:25 PM CDT
Civil Twilight 5:33 AM CDT 8:54 PM CDT
Nautical Twilight 4:57 AM CDT 9:31 PM CDT
Astronomical Twilight 4:17 AM CDT 10:11 PM CDT
Moon 10:14 PM CDT (5/26) 7:32 AM CDT (5/26)
Length of Visible Light 15h 21m
Length of Day
14h 22m
Waning Gibbous, 96% of the Moon is Illuminated
May 26
Waning Gibbous
May 31
Last Quarter
Jun 8
New
Jun 16
First Quarter
Jun 23
Full

Hourly Weather History & Observations

Time (CDT) Temp. Heat Index Dew Point Humidity Pressure Visibility Wind Dir Wind Speed Gust Speed Precip Events Conditions
7:15 AM 66.2 °F - 60.8 °F 83% 30.10 in 10.0 mi SSE 5.8 mph - N/A   Clear
7:35 AM 66.2 °F - 62.6 °F 88% 30.10 in 10.0 mi SSE 6.9 mph - N/A   Clear
8:55 AM 73.4 °F - 62.6 °F 69% 30.10 in 10.0 mi South 8.1 mph - N/A   Clear
9:15 AM 75.2 °F - 62.6 °F 65% 30.10 in 10.0 mi South 10.4 mph - N/A   Clear
9:35 AM 75.2 °F - 62.6 °F 65% 30.11 in 10.0 mi SSW 12.7 mph - N/A   Clear
9:55 AM 75.2 °F - 62.6 °F 65% 30.12 in 10.0 mi SSW 13.8 mph - N/A   Clear
10:15 AM 75.2 °F - 62.6 °F 65% 30.11 in 10.0 mi SSW 16.1 mph 20.7 mph N/A   Clear
10:35 AM 75.2 °F - 62.6 °F 65% 30.12 in 10.0 mi SSW 12.7 mph 21.9 mph N/A   Clear
10:55 AM 78.8 °F - 64.4 °F 61% 30.12 in 10.0 mi South 13.8 mph 20.7 mph N/A   Clear
11:15 AM 78.8 °F - 64.4 °F 61% 30.12 in 10.0 mi SSW 15.0 mph 20.7 mph N/A   Partly Cloudy
11:35 AM 77.0 °F - 64.4 °F 65% 30.12 in 10.0 mi South 16.1 mph 20.7 mph N/A   Scattered Clouds
11:55 AM 77.0 °F - 64.4 °F 65% 30.12 in 10.0 mi SSW 15.0 mph 21.9 mph N/A   Partly Cloudy
12:15 PM 77.0 °F - 64.4 °F 65% 30.12 in 10.0 mi SSW 13.8 mph 19.6 mph N/A   Clear
12:35 PM 78.8 °F - 66.2 °F 65% 30.11 in 10.0 mi South 13.8 mph 19.6 mph N/A   Partly Cloudy
12:55 PM 78.8 °F - 64.4 °F 61% 30.11 in 10.0 mi SSW 13.8 mph 20.7 mph N/A   Scattered Clouds
1:15 PM 78.8 °F - 64.4 °F 61% 30.10 in 10.0 mi SSW 16.1 mph 20.7 mph N/A   Mostly Cloudy
1:35 PM 78.8 °F - 64.4 °F 61% 30.09 in 10.0 mi SSW 12.7 mph 19.6 mph N/A   Mostly Cloudy
1:55 PM 78.8 °F - 64.4 °F 61% 30.09 in 10.0 mi South 11.5 mph 20.7 mph N/A   Mostly Cloudy
2:15 PM 80.6 °F 82.3 °F 64.4 °F 58% 30.07 in 10.0 mi South 13.8 mph 17.3 mph N/A   Mostly Cloudy
2:35 PM 80.6 °F 82.3 °F 64.4 °F 58% 30.07 in 10.0 mi South 12.7 mph 19.6 mph N/A   Scattered Clouds
2:55 PM 80.6 °F 82.3 °F 64.4 °F 58% 30.06 in 10.0 mi SSW 15.0 mph 19.6 mph N/A   Scattered Clouds
3:15 PM 80.6 °F 82.3 °F 64.4 °F 58% 30.06 in 10.0 mi South 10.4 mph 17.3 mph N/A   Scattered Clouds
3:35 PM 78.8 °F - 62.6 °F 57% 30.05 in 10.0 mi South 8.1 mph 21.9 mph N/A   Partly Cloudy
3:55 PM 80.6 °F 81.8 °F 62.6 °F 54% 30.04 in 10.0 mi South 12.7 mph 18.4 mph N/A   Clear
4:15 PM 80.6 °F 81.8 °F 62.6 °F 54% 30.04 in 10.0 mi South 12.7 mph 21.9 mph N/A   Scattered Clouds
4:35 PM 80.6 °F 81.8 °F 62.6 °F 54% 30.03 in 10.0 mi SSW 11.5 mph 19.6 mph N/A   Partly Cloudy
4:55 PM 80.6 °F 81.8 °F 62.6 °F 54% 30.03 in 10.0 mi SSW 15.0 mph - N/A   Partly Cloudy
5:15 PM 82.4 °F 83.4 °F 62.6 °F 51% 30.03 in 10.0 mi SSW 15.0 mph 20.7 mph N/A   Partly Cloudy
5:35 PM 80.6 °F 81.8 °F 62.6 °F 54% 30.02 in 10.0 mi South 11.5 mph - N/A   Partly Cloudy
5:55 PM 80.6 °F 81.8 °F 62.6 °F 54% 30.01 in 10.0 mi South 11.5 mph 17.3 mph N/A   Partly Cloudy
6:15 PM 80.6 °F 81.8 °F 62.6 °F 54% 30.01 in 10.0 mi SSW 6.9 mph - N/A   Clear
6:35 PM 80.6 °F 81.8 °F 62.6 °F 54% 30.00 in 10.0 mi South 9.2 mph 16.1 mph N/A   Clear
6:55 PM 80.6 °F 81.8 °F 62.6 °F 54% 30.00 in 10.0 mi South 8.1 mph - N/A   Clear
7:15 PM 78.8 °F - 62.6 °F 57% 30.00 in 10.0 mi South 8.1 mph - N/A   Clear
7:35 PM 78.8 °F - 62.6 °F 57% 30.00 in 10.0 mi South 8.1 mph - N/A   Clear
7:55 PM 77.0 °F - 62.6 °F 61% 30.00 in 10.0 mi South 6.9 mph - N/A   Clear
8:15 PM 77.0 °F - 60.8 °F 57% 30.00 in 10.0 mi South 10.4 mph - N/A   Clear
8:35 PM 75.2 °F - 60.8 °F 61% 30.00 in 10.0 mi South 6.9 mph - N/A   Clear
8:55 PM 73.4 °F - 60.8 °F 65% 30.00 in 10.0 mi South 8.1 mph - N/A   Clear
9:15 PM 73.4 °F - 60.8 °F 65% 30.00 in 10.0 mi South 10.4 mph - N/A   Clear
9:35 PM 73.4 °F - 60.8 °F 65% 30.00 in 10.0 mi South 8.1 mph - N/A   Clear
9:55 PM 73.4 °F - 60.8 °F 65% 30.00 in 10.0 mi South 10.4 mph - N/A   Clear
10:15 PM 73.4 °F - 60.8 °F 65% 30.01 in 10.0 mi South 10.4 mph 16.1 mph N/A   Clear
10:35 PM 73.4 °F - 59.0 °F 61% 30.01 in 10.0 mi South 11.5 mph - N/A   Clear
10:55 PM 71.6 °F - 59.0 °F 64% 30.02 in 10.0 mi South 9.2 mph - N/A   Clear
11:15 PM 71.6 °F - 57.2 °F 60% 30.02 in 10.0 mi South 9.2 mph - N/A   Clear
11:35 PM 71.6 °F - 57.2 °F 60% 30.02 in 10.0 mi South 6.9 mph - N/A   Clear
11:55 PM 69.8 °F - 57.2 °F 64% 30.02 in 10.0 mi South 3.5 mph - N/A   Clear